[[{"header":{"parameterUnit":"m.s-1","parameterCategory":1,"la1":30.2991,"la2":30.254,"lo1":-89.0895,"lo2":-89.0444,"dy":0.0017,"dx":0.0017,"nx":28,"ny":28,"refTime":"2025-02-08T09:00:00:Z","depth":0,"parameterNumber":2,"parameterNumberName":"U-component_of_WINDS"},"data":[0,0,0,0,0,0,0,0,0,0,0,0,0,0,0,0,0,0,0,0,0,0,0,0,0,0,0,0,0,0,0,0,0,0,0,0,0,0,0,0,0,0,0,0,0,0,0,0,0,0,0,0,0,0,0,0,0,0,-0.5608,-0.5608,0,-0.5523,-0.5522,-0.5521,-0.5456,-0.5456,-0.5455,-0.5454,-0.5366,-0.5364,-0.5363,0,0,0,0,0,0,0,0,0,0,0,0,0,-0.5716,-0.5714,-0.5609,-0.5607,-0.5606,-0.5523,-0.5522,-0.5521,-0.5456,-0.5455,-0.5455,-0.5454,-0.5367,-0.5365,-0.5362,0,0,0,0,0,0,0,0,0,0,0,0,0,-0.5654,-0.5714,-0.5609,-0.5564,-0.5559,-0.5523,-0.5522,-0.552,-0.5456,-0.5455,-0.5455,-0.5454,-0.5367,-0.5365,-0.5362,-0.5363,0,0,-0.5354,-0.5353,0,0,0,0,0,0,0,0,-0.5657,-0.565,-0.5572,-0.5567,-0.5562,-0.5499,-0.5527,-0.5468,-0.5457,-0.5495,-0.5454,-0.5453,-0.5411,-0.5405,-0.5391,-0.5359,-0.5355,-0.5354,-0.5352,-0.5351,-0.535,0,0,0,0,0,0,0,-0.5662,-0.5653,-0.5575,-0.5571,-0.5565,-0.5548,-0.5539,-0.5516,-0.5459,-0.5492,-0.5487,-0.5478,-0.5408,-0.5393,-0.5388,-0.5354,-0.5354,-0.5351,-0.535,-0.5349,-0.5321,-0.5321,0,0,0,0,0,0,-0.5673,-0.5657,-0.5577,-0.5572,-0.5608,-0.5547,-0.5536,-0.552,-0.5459,-0.5449,-0.5479,-0.5475,-0.5398,-0.5391,-0.5385,-0.5383,-0.5351,-0.5348,-0.5347,-0.532,-0.5321,-0.5322,0,0,0,0,0,0,-0.5676,-0.5667,-0.5581,-0.5613,-0.5601,-0.5546,-0.5529,-0.5519,-0.5504,-0.5449,-0.5439,-0.5474,-0.5397,-0.5389,-0.5369,-0.5379,-0.5347,-0.5345,-0.5319,-0.532,-0.5321,-0.538,0,0,0,0,0,0,-0.5679,-0.5668,-0.5668,-0.5614,-0.56,-0.5567,-0.5529,-0.5518,-0.55,-0.5494,-0.5442,-0.5433,-0.5396,-0.5374,-0.5367,-0.5375,-0.5343,-0.5318,-0.5319,-0.5321,-0.5377,-0.5383,-0.5388,0,0,0,0,0,-0.5683,-0.5687,-0.5668,-0.5659,-0.5598,-0.5568,-0.556,-0.5518,-0.5501,-0.55,-0.5465,-0.5434,-0.5379,-0.5372,-0.5364,-0.5371,-0.5317,-0.5319,-0.5321,-0.5374,-0.5381,-0.5388,0,0,0,0,0,0,-0.5743,-0.5679,-0.5657,-0.5644,-0.5612,-0.5557,-0.5555,-0.5527,-0.5499,-0.5495,-0.5443,-0.5432,-0.5419,-0.5393,-0.5387,-0.537,-0.5344,-0.5344,-0.5387,-0.5394,-0.54,-0.5407,-0.534,0,0,0,0,0,-0.5755,-0.5736,-0.5681,-0.5674,-0.5659,-0.561,-0.5595,-0.5566,-0.553,-0.5516,-0.548,-0.5446,-0.5422,-0.5406,-0.538,-0.5372,-0.5361,-0.5373,-0.5379,-0.5384,-0.5385,-0.538,-0.5385,-0.5328,-0.5328,-0.5328,0,0,-0.5779,-0.5742,-0.5732,-0.5685,-0.5657,-0.5638,-0.5599,-0.5581,-0.5566,-0.5513,-0.5494,-0.5466,-0.5425,-0.5412,-0.5404,-0.539,-0.5398,-0.5386,-0.5391,-0.5389,-0.5383,-0.5388,-0.5393,-0.533,-0.5329,-0.5329,0,0,-0.5814,-0.5783,-0.5775,-0.5748,-0.5705,-0.5673,-0.5671,-0.562,-0.56,-0.5579,-0.5539,-0.5522,-0.548,-0.5453,-0.5434,-0.5459,-0.543,-0.5452,-0.5482,-0.5478,-0.5482,-0.5486,-0.5496,-0.55,-0.5453,-0.5453,-0.5453,0,-0.5849,-0.5819,-0.5774,-0.5759,-0.574,-0.5691,-0.5683,-0.5658,-0.561,-0.5598,-0.5582,-0.5529,-0.5499,-0.5479,-0.5486,-0.5471,-0.5468,-0.5458,-0.5485,-0.5489,-0.5492,-0.5501,-0.5504,-0.5456,-0.5456,-0.5456,-0.5455,0,-0.5865,-0.5845,-0.5844,-0.5799,-0.5779,-0.5767,-0.5721,-0.5707,-0.5679,-0.5649,-0.5629,-0.559,-0.5556,-0.5549,-0.5521,-0.5526,-0.5519,-0.5495,-0.5468,-0.5501,-0.5509,-0.5512,-0.5461,-0.546,-0.5459,-0.5458,0,0,-0.5935,-0.5866,-0.5866,-0.5846,-0.5796,-0.578,-0.5766,-0.5733,-0.5722,-0.5691,-0.5678,-0.5644,-0.5623,-0.5601,-0.557,-0.5566,-0.559,-0.5543,-0.5541,-0.5554,-0.5594,-0.5613,-0.5618,-0.5571,-0.5571,-0.5571,-0.5598,0,-0.5963,-0.5936,-0.5895,-0.5881,-0.5863,-0.5817,-0.5805,-0.5773,-0.5744,-0.5725,-0.5692,-0.567,-0.5642,-0.5629,-0.5623,-0.5589,-0.5598,-0.5586,-0.5559,-0.5559,-0.5572,-0.5622,-0.5641,-0.5668,-0.5601,-0.5601,-0.5601,0,-0.5991,-0.5963,-0.5948,-0.59,-0.5891,-0.5881,-0.5848,-0.5829,-0.5793,-0.5772,-0.5749,-0.5715,-0.5699,-0.5674,-0.5651,-0.5644,-0.5631,-0.5612,-0.5612,-0.5609,-0.5583,-0.562,-0.5675,-0.568,-0.5605,-0.5605,-0.5605,0,-0.6046,-0.6003,-0.5989,-0.5972,-0.5916,-0.5911,-0.5887,-0.5849,-0.5833,-0.5804,-0.5793,-0.5762,-0.5746,-0.5723,-0.5683,-0.5668,-0.5665,-0.5636,-0.5647,-0.5649,-0.5649,-0.565,-0.5704,-0.5639,-0.5639,-0.5639,-0.5639,0,-0.6081,-0.6074,-0.6013,-0.6004,-0.5995,-0.5948,-0.594,-0.5912,-0.588,-0.5865,-0.5823,-0.581,-0.5757,-0.5738,-0.5706,-0.5693,-0.5685,-0.5668,-0.566,-0.5673,-0.5675,-0.5664,-0.5661,-0.564,-0.564,-0.564,-0.5639,0,-0.614,-0.6099,-0.608,-0.6029,-0.6016,-0.6012,-0.5968,-0.5958,-0.5926,-0.5908,-0.5902,-0.5852,-0.5828,-0.5785,-0.5748,-0.5727,-0.572,-0.5706,-0.5733,-0.5728,-0.5742,-0.5742,-0.5792,-0.5796,-0.5728,-0.5729,-0.5729,0,-0.6166,-0.616,-0.6108,-0.6095,-0.6073,-0.6053,-0.6036,-0.599,-0.5974,-0.5932,-0.5928,-0.59,-0.5876,-0.5839,-0.58,-0.5772,-0.5757,-0.5776,-0.5752,-0.5766,-0.5759,-0.576,-0.576,-0.5782,-0.5783,-0.5784,-0.5785,0,-0.6217,-0.6197,-0.6174,-0.6144,-0.6125,-0.6099,-0.6071,-0.6063,-0.6011,-0.5995,-0.597,-0.5951,-0.5914,-0.5887,-0.5854,-0.5829,-0.5799,-0.5792,-0.5794,-0.5807,-0.5824,-0.5816,-0.5749,-0.5792,-0.5791,-0.579,-0.579,-0.579,-0.6261,-0.6254,-0.6217,-0.6193,-0.6167,-0.6142,-0.613,-0.6098,-0.6076,-0.6042,-0.6016,-0.5994,-0.5958,-0.591,-0.5887,-0.5869,-0.5854,-0.5856,-0.5857,-0.5858,-0.5864,-0.5826,-0.5862,-0.5862,-0.5862,-0.5861,-0.5861,0,-0.6312,-0.6285,-0.6264,-0.6226,-0.6207,-0.618,-0.6147,-0.6134,-0.6114,-0.6083,-0.606,-0.6032,-0.6006,-0.5966,-0.5937,-0.593,-0.5915,-0.5924,-0.5925,-0.592,-0.5877,-0.588,-0.5937,-0.5937,-0.5937,-0.5937,-0.5937,-0.5937,-0.6335,-0.6322,-0.6297,-0.6271,-0.6244,-0.6222,-0.6206,-0.6183,-0.6158,-0.6128,-0.6107,-0.608,-0.6046,-0.6014,-0.599,-0.5978,-0.597,-0.5984,-0.5968,-0.593,-0.5923,-0.5916,-0.5918,-0.5982,-0.5982,-0.6012,-0.6013,-0.6013]},{"header":{"parameterUnit":"m.s-1","parameterCategory":1,"la1":30.2991,"la2":30.254,"lo1":-89.0895,"lo2":-89.0444,"dy":0.0017,"dx":0.0017,"nx":28,"ny":28,"refTime":"2025-02-08T09:00:00:Z","depth":0,"parameterNumber":3,"parameterNumberName":"V-component_of_WINDS"},"data":[0,0,0,0,0,0,0,0,0,0,0,0,0,0,0,0,0,0,0,0,0,0,0,0,0,0,0,0,0,0,0,0,0,0,0,0,0,0,0,0,0,0,0,0,0,0,0,0,0,0,0,0,0,0,0,0,0,0,2.395,2.3951,0,2.4042,2.4043,2.4044,2.4098,2.4098,2.4098,2.4098,2.4191,2.4193,2.4195,0,0,0,0,0,0,0,0,0,0,0,0,0,2.3818,2.3821,2.3949,2.3951,2.3952,2.4042,2.4043,2.4044,2.4098,2.4098,2.4098,2.4098,2.419,2.4193,2.4195,0,0,0,0,0,0,0,0,0,0,0,0,0,2.3889,2.3821,2.3949,2.3989,2.3994,2.4042,2.4043,2.4045,2.4098,2.4098,2.4098,2.4098,2.4189,2.4192,2.4196,2.4211,0,0,2.4206,2.4208,0,0,0,0,0,0,0,0,2.3885,2.3894,2.3982,2.3987,2.3992,2.4059,2.4031,2.41,2.4097,2.4058,2.4098,2.4099,2.4146,2.4153,2.417,2.4215,2.4219,2.4207,2.4209,2.421,2.4211,0,0,0,0,0,0,0,2.388,2.3891,2.3986,2.3983,2.3989,2.4002,2.4013,2.4044,2.4099,2.4062,2.4066,2.4076,2.4149,2.4167,2.4173,2.422,2.4206,2.4209,2.4212,2.4213,2.4284,2.4284,0,0,0,0,0,0,2.3869,2.3886,2.3983,2.3989,2.3938,2.4005,2.4016,2.4037,2.4099,2.4109,2.4076,2.4078,2.4161,2.4168,2.4176,2.4199,2.421,2.4213,2.4215,2.4284,2.4284,2.4284,0,0,0,0,0,0,2.3866,2.3877,2.3979,2.3939,2.3953,2.4006,2.4029,2.4038,2.4056,2.411,2.412,2.4083,2.4161,2.4171,2.4202,2.4203,2.4215,2.4218,2.4284,2.4284,2.4284,2.4243,0,0,0,0,0,0,2.3862,2.3876,2.3882,2.3938,2.3955,2.4004,2.4029,2.404,2.4062,2.4066,2.412,2.4129,2.4162,2.4197,2.4206,2.4208,2.422,2.4285,2.4284,2.4284,2.4245,2.4242,2.4239,0,0,0,0,0,2.3857,2.3866,2.3882,2.3893,2.3963,2.4004,2.4013,2.4052,2.4062,2.4069,2.4104,2.4127,2.4201,2.42,2.421,2.4213,2.4285,2.4284,2.4284,2.4246,2.4243,2.4239,0,0,0,0,0,0,2.3807,2.3874,2.3893,2.392,2.3956,2.4013,2.4023,2.4046,2.408,2.4082,2.4128,2.414,2.4167,2.4193,2.419,2.4232,2.4246,2.4247,2.4213,2.421,2.4207,2.4201,2.4223,0,0,0,0,0,2.3799,2.3827,2.3884,2.3903,2.392,2.3968,2.3987,2.4014,2.4053,2.4068,2.4105,2.4142,2.4174,2.4193,2.4225,2.4249,2.4262,2.4256,2.4253,2.4251,2.4252,2.4268,2.4267,2.4283,2.4283,2.4283,0,0,2.3783,2.3823,2.3838,2.3894,2.3925,2.3953,2.398,2.4008,2.4029,2.4072,2.4104,2.4133,2.4177,2.4205,2.4219,2.4227,2.425,2.425,2.4248,2.4251,2.4268,2.4266,2.4265,2.4282,2.4283,2.4283,0,0,2.3769,2.3801,2.3821,2.3852,2.39,2.3932,2.3937,2.3991,2.4012,2.4045,2.4079,2.4104,2.4157,2.4188,2.421,2.4209,2.4233,2.4218,2.4203,2.4218,2.4217,2.4216,2.4217,2.4217,2.4219,2.4219,2.4219,0,2.3742,2.3786,2.3828,2.3855,2.3879,2.3921,2.3942,2.3969,2.4024,2.404,2.4049,2.4118,2.415,2.4187,2.4187,2.4203,2.4211,2.4212,2.4214,2.4214,2.4213,2.4215,2.4215,2.4217,2.4217,2.4217,2.4218,0,2.3752,2.3782,2.3793,2.3846,2.3871,2.3895,2.3941,2.3961,2.3986,2.4018,2.4052,2.4092,2.4134,2.4145,2.4169,2.4185,2.4189,2.4205,2.4221,2.4209,2.4211,2.4212,2.4214,2.4215,2.4215,2.4216,0,0,2.3708,2.3786,2.3789,2.3815,2.3871,2.3895,2.392,2.3962,2.398,2.4016,2.404,2.4085,2.4101,2.4126,2.4154,2.4168,2.4166,2.4183,2.4185,2.4179,2.4188,2.4176,2.4176,2.4182,2.4182,2.4182,2.4185,0,2.3702,2.3751,2.3791,2.3825,2.3854,2.3894,2.3917,2.3954,2.3984,2.4013,2.4046,2.4078,2.4096,2.4112,2.4127,2.4163,2.4168,2.4163,2.4204,2.4205,2.4193,2.4176,2.4163,2.4163,2.4186,2.4186,2.4186,0,2.3701,2.3738,2.3776,2.3831,2.3844,2.3864,2.3907,2.3934,2.3977,2.3998,2.4027,2.4057,2.4087,2.4099,2.4141,2.4136,2.4156,2.4176,2.4177,2.4182,2.4195,2.4182,2.4164,2.4164,2.4187,2.4187,2.4187,0,2.3666,2.3725,2.3756,2.3776,2.3841,2.3854,2.3882,2.3925,2.3948,2.3986,2.4001,2.4041,2.4063,2.4093,2.4132,2.4138,2.417,2.4186,2.4189,2.4188,2.4194,2.4193,2.418,2.4206,2.4206,2.4206,2.4206,0,2.3656,2.3678,2.3741,2.376,2.3786,2.3831,2.3856,2.3886,2.3925,2.3951,2.3988,2.4011,2.4062,2.4092,2.4123,2.4154,2.4163,2.4181,2.4189,2.4178,2.4176,2.4191,2.4193,2.4206,2.4206,2.4206,2.4206,0,2.3621,2.3665,2.3701,2.376,2.3775,2.3792,2.3842,2.3862,2.3895,2.3927,2.3937,2.3989,2.4026,2.4069,2.4119,2.414,2.4169,2.418,2.4154,2.4159,2.416,2.416,2.4157,2.4159,2.4182,2.4182,2.4182,0,2.3612,2.363,2.3691,2.3712,2.3739,2.3771,2.3795,2.3841,2.3865,2.3917,2.393,2.397,2.4005,2.4062,2.4104,2.4143,2.4156,2.4152,2.4162,2.4151,2.4157,2.4156,2.4158,2.4149,2.4149,2.4148,2.4148,0,2.3592,2.3613,2.3647,2.3689,2.3718,2.3753,2.379,2.3804,2.3858,2.3883,2.3922,2.3948,2.4001,2.404,2.4085,2.4113,2.414,2.4145,2.4148,2.4137,2.4122,2.4131,2.4148,2.4145,2.4145,2.4145,2.4145,2.4146,2.3571,2.3589,2.3636,2.3673,2.3706,2.3739,2.3762,2.3798,2.3832,2.3879,2.3904,2.3942,2.3986,2.4049,2.4077,2.4108,2.4117,2.4121,2.4122,2.4122,2.412,2.4117,2.4116,2.4116,2.4116,2.4116,2.4116,0,2.3553,2.3585,2.3619,2.367,2.37,2.3723,2.3766,2.3789,2.3822,2.3862,2.3896,2.3941,2.398,2.4025,2.4067,2.4083,2.4096,2.4092,2.4092,2.4098,2.4109,2.4102,2.4081,2.4081,2.4081,2.4081,2.4081,2.4081,2.3547,2.358,2.3607,2.3657,2.3689,2.3728,2.375,2.3782,2.3814,2.3863,2.3896,2.3926,2.3968,2.4013,2.405,2.4063,2.4077,2.4069,2.4085,2.4094,2.4097,2.41,2.4094,2.4072,2.4072,2.4072,2.4072,2.4072]}]]